Torna al catalogo

SAUDISAT 2

AttivoRadioamatoreSSO
NORAD 28371·PAYLOAD·🇸🇦 Saudi Arabia

Lanciato Jun 29, 2004 da Baikonur Cosmodrome

Loading…

Prossimi Passaggi (prossime 24 ore)

TLE

AggiornatoSource: Space-Track

Epoca: Sep 14, 2026, 06:07 UTC

1 28371U 04025F   26257.25510335  .00000180  00000-0  51167-4 0  9991
2 28371  98.5565 259.5645 0025231  25.7979 334.4470 14.56725584178715

Traccia SAUDISAT 2 in tempo reale con AllMySat

Download on the App Store